FW9116 Weather Reports


time (UTC)temp
C
wind
direction
speed
KPH
gust
KPH
rain 1hr
cm
rain 24hr
cm
rain mn
cm
humidity
%
barometer
mb
20260503181557 23 302 3.2 11.3 0.00 0.00 0.00 54 1010.8
20260503181057 24 316 3.2 11.3 0.00 0.00 0.00 56 1010.8
20260503180558 23 343 3.2 8.0 0.00 0.00 0.00 55 1010.9
20260503180057 23 69 1.6 11.3 0.00 0.00 0.00 56 1010.9
20260503175557 23 318 4.8 11.3 0.00 0.00 0.00 57 1010.9
20260503175057 23 0 1.6 12.9 0.00 0.00 0.00 57 1010.9
20260503174610 23 306 1.6 14.5 0.00 0.00 0.00 60 1011.0
20260503174057 22 336 3.2 14.5 0.00 0.00 0.00 60 1011.0
20260503173557 22 336 4.8 14.5 0.00 0.00 0.00 59 1011.0
20260503173132 22 306 3.2 12.9 0.00 0.00 0.00 62 1011.0
20260503172556 22 53 1.6 11.3 0.00 0.00 0.00 60 1011.0
20260503172100 21 352 4.8 11.3 0.00 0.00 0.00 62 1011.1
20260503171556 21 9 3.2 11.3 0.00 0.00 0.00 62 1011.1
20260503171057 21 5 1.6 11.3 0.00 0.00 0.00 64 1011.1
20260503170558 21 9 4.8 11.3 0.00 0.00 0.00 64 1011.2
20260503150557 15 5 3.2 8.0 0.00 0.00 0.00 88 1011.7
20260503150107 14 355 1.6 6.4 0.00 0.00 0.00 89 1011.6
20260503131053 12 0 0.0 1.6 0.00 0.00 0.00 94 1011.3
20260503130556 12 0 0.0 4.8 0.00 0.00 0.00 94 1011.3
20260503110557 12 0 0.0 1.6 0.00 0.00 0.00 94 1011.6
20260503100109 12 0 0.0 0.0 0.00 0.00 0.00 93 1011.7
20260503090106 13 0 0.0 1.6 0.00 0.00 0.00 91 1012.0
20260503081600 13 0 0.0 3.2 0.00 0.00 0.00 89 1012.1
20260503081057 13 302 0.0 3.2 0.00 0.00 0.00 89 1012.1
20260503080558 13 0 0.0 3.2 0.00 0.00 0.00 89 1012.1
20260503072555 14 0 0.0 0.0 0.00 0.00 0.00 87 1012.2
20260503072057 14 0 0.0 0.0 0.00 0.00 0.00 86 1012.1
20260503071611 14 0 0.0 0.0 0.00 0.00 0.00 86 1012.2
20260503071055 15 0 0.0 0.0 0.00 0.00 0.00 86 1012.2
20260503070556 14 0 0.0 0.0 0.00 0.00 0.00 86 1012.1
20260503070113 14 0 0.0 0.0 0.00 0.00 0.00 86 1012.2
20260503060114 15 0 0.0 4.8 0.00 0.00 0.00 84 1012.1
20260503055053 15 302 0.0 3.2 0.00 0.00 0.00 84 1012.2
20260503054559 15 0 0.0 1.6 0.00 0.00 0.00 83 1012.2
20260503054057 15 0 0.0 1.6 0.00 0.00 0.00 83 1012.1
20260503053554 15 0 0.0 1.6 0.00 0.00 0.00 82 1012.0
20260503053058 15 0 0.0 3.2 0.00 0.00 0.00 82 1012.0
20260503052553 16 0 0.0 3.2 0.00 0.00 0.00 81 1012.0
20260503052058 16 302 0.0 3.2 0.00 0.00 0.00 81 1012.0
20260503051555 16 0 0.0 3.2 0.00 0.00 0.00 80 1012.0
20260503051056 16 0 0.0 4.8 0.00 0.00 0.00 79 1011.9
20260503050558 16 302 1.6 4.8 0.00 0.00 0.00 80 1011.9
20260503045559 16 0 0.0 3.2 0.00 0.00 0.00 80 1012.0
20260503045057 16 0 0.0 4.8 0.00 0.00 0.00 81 1011.9
20260503044556 16 5 0.0 4.8 0.00 0.00 0.00 81 1012.0
20260503044055 16 0 1.6 4.8 0.00 0.00 0.00 80 1012.1
20260503043557 16 13 0.0 3.2 0.00 0.00 0.00 80 1012.2
20260503043058 16 0 0.0 4.8 0.00 0.00 0.00 80 1012.2
20260503042557 16 13 1.6 4.8 0.00 0.00 0.00 79 1012.2
20260503042057 16 13 1.6 4.8 0.00 0.00 0.00 78 1012.0
20260503041559 16 13 1.6 3.2 0.00 0.00 0.00 78 1012.0
20260503041058 16 0 0.0 3.2 0.00 0.00 0.00 78 1012.0
20260503040556 16 0 0.0 3.2 0.00 0.00 0.00 78 1011.9
20260503040057 17 13 0.0 4.8 0.00 0.00 0.00 77 1012.0
20260503035600 17 13 1.6 4.8 0.00 0.00 0.00 77 1012.0
20260503035101 17 0 1.6 4.8 0.00 0.00 0.00 77 1012.0
20260503034601 17 112 0.0 3.2 0.00 0.00 0.00 77 1012.0
20260503034056 17 112 0.0 3.2 0.00 0.00 0.00 77 1012.1
20260503033600 17 144 1.6 3.2 0.00 0.00 0.00 76 1012.1
20260503033101 17 0 0.0 3.2 0.00 0.00 0.00 76 1012.1
20260503032554 17 144 0.0 3.2 0.00 0.00 0.00 76 1012.0
20260503032057 17 0 0.0 4.8 0.00 0.00 0.00 76 1012.0
20260503031602 17 0 1.6 4.8 0.00 0.00 0.00 76 1011.9
20260503031056 17 63 1.6 4.8 0.00 0.00 0.00 76 1011.7
20260503030556 17 144 1.6 8.0 0.00 0.00 0.00 75 1011.7
20260503030057 17 0 0.0 8.0 0.00 0.00 0.00 75 1011.7
20260503025558 17 17 3.2 8.0 0.00 0.00 0.00 73 1011.6
20260503025102 17 317 0.0 4.8 0.00 0.00 0.00 74 1011.8
20260503024623 17 317 0.0 12.9 0.00 0.00 0.00 73 1011.7
20260503024057 17 299 1.6 19.3 0.00 0.00 0.00 72 1011.9
20260503023557 17 267 4.8 19.3 0.00 0.00 0.00 72 1011.8
20260503023059 17 169 1.6 11.3 0.00 0.00 0.00 73 1012.0
20260503022557 17 221 3.2 17.7 0.00 0.00 0.00 74 1012.0
20260503022058 17 263 3.2 24.1 0.00 0.00 0.00 73 1012.1
20260503021605 17 150 3.2 24.1 0.00 0.00 0.00 73 1012.1
20260503021057 18 201 4.8 32.2 0.00 0.00 0.00 72 1012.1
20260503020557 18 228 3.2 32.2 0.00 0.00 0.00 72 1012.2
20260503020104 18 160 12.9 30.6 0.00 0.00 0.00 71 1012.1
20260503015557 19 182 8.0 25.7 0.00 0.00 0.00 70 1012.2
20260503015100 19 177 8.0 19.3 0.00 0.00 0.00 69 1011.8
20260503014627 20 169 1.6 8.0 0.00 0.00 0.00 66 1011.4
20260503014058 20 182 1.6 8.0 0.00 0.00 0.00 65 1011.4
20260503013554 20 216 3.2 8.0 0.00 0.00 0.00 64 1011.3
20260503013058 21 245 0.0 8.0 0.00 0.00 0.00 63 1011.2
20260503012557 21 224 1.6 8.0 0.00 0.00 0.00 62 1011.2
20260503012056 21 189 1.6 8.0 0.00 0.00 0.00 61 1011.2
20260503011625 21 213 3.2 6.4 0.00 0.00 0.00 62 1011.2
20260503011100 21 234 1.6 6.4 0.00 0.00 0.00 61 1011.1
20260503010557 21 216 3.2 6.4 0.00 0.00 0.00 61 1011.2
20260503010057 21 200 1.6 6.4 0.00 0.00 0.00 59 1011.1
20260503005559 22 276 0.0 6.4 0.00 0.00 0.00 57 1011.1
20260503005058 22 300 1.6 11.3 0.00 0.00 0.00 58 1011.1
20260503004556 22 0 1.6 11.3 0.00 0.00 0.00 59 1011.1
20260503004058 22 352 0.0 6.4 0.00 0.00 0.00 57 1011.1
20260503003553 22 352 0.0 6.4 0.00 0.00 0.00 57 1011.2
20260503003101 22 60 1.6 6.4 0.00 0.00 0.00 56 1011.1
20260503002556 22 0 1.6 6.4 0.00 0.00 0.00 57 1011.1
20260503002053 22 0 1.6 11.3 0.00 0.00 0.00 56 1011.0
20260503001620 22 281 1.6 11.3 0.00 0.00 0.00 58 1011.0
20260503001057 22 282 3.2 9.7 0.00 0.00 0.00 57 1011.0
20260503000557 21 77 1.6 8.0 0.00 0.00 0.00 57 1011.1
20260503000121 21 360 3.2 8.0 0.00 0.00 0.00 58 1011.2
20260502235557 21 360 1.6 8.0 0.00 0.00 0.00 57 1011.2
20260502235054 21 298 1.6 9.7 0.00 0.00 0.00 58 1011.3
20260502234618 22 313 3.2 9.7 0.00 0.00 0.00 58 1011.3
20260502234057 21 67 1.6 6.4 0.00 0.00 0.00 60 1011.4
20260502233556 21 255 1.6 8.0 0.00 0.00 0.00 56 1011.4
20260502233058 21 352 1.6 8.0 0.00 0.00 0.00 58 1011.5
20260502232557 21 55 3.2 8.0 0.00 0.00 0.00 59 1011.5
20260502232056 21 325 1.6 8.0 0.00 0.00 0.00 58 1011.6
20260502231557 21 82 1.6 9.7 0.00 0.00 0.00 57 1011.7
20260502231100 21 248 0.0 9.7 0.00 0.00 0.00 58 1011.7
20260502230557 21 13 3.2 9.7 0.00 0.00 0.00 60 1011.7
20260502230100 21 76 3.2 9.7 0.00 0.00 0.00 59 1011.7
20260502225553 21 340 1.6 6.4 0.00 0.00 0.00 60 1011.7
20260502225057 20 38 0.0 6.4 0.00 0.00 0.00 62 1011.8
20260502224555 20 297 0.0 6.4 0.00 0.00 0.00 62 1011.8
20260502224057 19 302 3.2 6.4 0.00 0.00 0.00 63 1011.9
20260502223557 20 314 1.6 9.7 0.00 0.00 0.00 62 1012.0
20260502223103 20 318 1.6 9.7 0.00 0.00 0.00 62 1012.2
20260502222557 20 9 3.2 9.7 0.00 0.00 0.00 62 1012.3
20260502222058 20 194 3.2 9.7 0.00 0.00 0.00 62 1012.3
20260502221555 19 292 3.2 11.3 0.00 0.00 0.00 63 1012.4
20260502221054 19 0 3.2 11.3 0.00 0.00 0.00 63 1012.5
20260502220557 20 304 3.2 8.0 0.00 0.00 0.00 63 1012.5
20260502215559 20 0 1.6 12.9 0.00 0.00 0.00 62 1012.7
20260502215058 19 279 4.8 12.9 0.00 0.00 0.00 61 1012.8
20260502214556 19 82 4.8 11.3 0.00 0.00 0.00 63 1012.8
20260502214057 18 271 3.2 11.3 0.00 0.00 0.00 64 1012.9
20260502213554 18 18 4.8 11.3 0.00 0.00 0.00 63 1013.0
20260502213100 18 308 3.2 9.7 0.00 0.00 0.00 66 1013.1
20260502212601 18 311 3.2 12.9 0.00 0.00 0.00 66 1013.2
20260502212057 17 0 3.2 12.9 0.00 0.00 0.00 66 1013.3
20260502211558 18 44 3.2 12.9 0.00 0.00 0.00 65 1013.3
20260502211053 17 224 1.6 9.7 0.00 0.00 0.00 67 1013.3
20260502210554 17 80 3.2 12.9 0.00 0.00 0.00 67 1013.3
20260502210056 17 78 4.8 12.9 0.00 0.00 0.00 68 1013.3
20260502205558 18 43 3.2 9.7 0.00 0.00 0.00 66 1013.4
20260502205055 18 40 4.8 11.3 0.00 0.00 0.00 66 1013.6
20260502204603 18 90 3.2 14.5 0.00 0.00 0.00 68 1013.7
20260502204055 17 82 4.8 14.5 0.00 0.00 0.00 67 1013.9
20260502203554 17 13 4.8 8.0 0.00 0.00 0.00 67 1014.1
20260502203118 17 36 1.6 8.0 0.00 0.00 0.00 69 1014.0
20260502202554 17 93 1.6 6.4 0.00 0.00 0.00 71 1014.0
20260502202058 16 155 1.6 12.9 0.00 0.00 0.00 70 1014.1
20260502201616 16 278 4.8 12.9 0.00 0.00 0.00 71 1014.2
20260502201056 15 5 1.6 8.0 0.00 0.00 0.00 71 1014.2
20260502200557 15 0 1.6 8.0 0.00 0.00 0.00 73 1014.3
20260502200101 16 305 3.2 8.0 0.00 0.00 0.00 71 1014.2
20260502195559 15 273 1.6 9.7 0.00 0.00 0.00 74 1014.3
20260502195054 15 219 1.6 9.7 0.00 0.00 0.00 73 1014.4
20260502194601 15 257 1.6 8.0 0.00 0.00 0.00 72 1014.4
20260502194054 16 11 3.2 8.0 0.00 0.00 0.00 73 1014.4
20260502193557 16 79 0.0 16.1 0.00 0.00 0.00 73 1014.5
20260502193113 15 0 1.6 16.1 0.00 0.00 0.00 73 1014.4
20260502192557 15 19 3.2 8.0 0.00 0.00 0.00 72 1014.5
20260502192057 15 334 1.6 11.3 0.00 0.00 0.00 74 1014.4
20260502191556 14 352 1.6 14.5 0.00 0.00 0.00 76 1014.6
20260502191054 13 271 4.8 14.5 0.00 0.00 0.00 77 1014.9
20260502190554 14 302 1.6 8.0 0.00 0.00 0.00 77 1014.9
20260502190057 13 0 0.0 9.7 0.00 0.00 0.00 78 1015.0
20260502185557 13 46 1.6 9.7 0.00 0.00 0.00 78 1015.1
20260502185054 13 30 3.2 9.7 0.00 0.00 0.00 77 1015.1
20260502184603 13 317 3.2 9.7 0.00 0.00 0.00 78 1015.2
20260502184054 13 283 1.6 6.4 0.00 0.00 0.00 79 1015.0
20260502183554 13 323 1.6 6.4 0.00 0.00 0.00 78 1014.9
20260502183107 13 0 1.6 6.4 0.00 0.00 0.00 78 1014.8
20260502182553 13 0 0.0 8.0 0.00 0.00 0.00 81 1014.8
20260502182056 12 303 1.6 8.0 0.00 0.00 0.00 81 1014.9